Lemoore NAS, CA

3:08 PM PST on February 23, 2018 (GMT -0800)
Lemoore Naval Air Station

Weather History for KNLC - February, 2014

Change the Weather History Date:

Thursday, February 6, 2014

  Actual Average Record
Temperature  
Mean Temperature 50 °F -  
Max Temperature 53 °F 57 °F 79 °F (2015)
Min Temperature 48 °F 38 °F 30 °F (2003)
Degree Days  
Heating Degree Days 14    
Moisture  
Dew Point 44 °F    
Average Humidity 78    
Maximum Humidity 86    
Minimum Humidity 69    
Precipitation  
Precipitation 0.21 in - - ()
Sea Level Pressure  
Sea Level Pressure 30.02 in    
Wind  
Wind Speed 6 mph (ESE)    
Max Wind Speed 14 mph    
Max Gust Speed -    
Visibility 5 miles    
Events Rain    
Averages and records for this station are not official NWS values.
T = Trace of Precipitation, MM = Missing Value Source: NWS Daily Summary

Daily Weather History Graph

Daily Weather History Graph

Search for Another Location

Airport or City:

Trip Planner

Search our weather history database for the weather conditions in past years. The results will help you decide how hot, cold, wet, or windy it might be!

Date:

Astronomy

Feb. 06, 2014 Rise Set
Actual Time 6:56 AM PST 5:31 PM PST
Civil Twilight 6:29 AM PST 5:58 PM PST
Nautical Twilight 5:59 AM PST 6:28 PM PST
Astronomical Twilight 5:29 AM PST 6:59 PM PST
Moon 11:07 AM PST (2/6) 12:17 AM PST (2/6)
Length of Visible Light 11h 28m
Length of Day
10h 35m
Waxing Crescent, 50% of the Moon is Illuminated
Feb 6
Waxing Crescent
Feb 14
Full
Feb 22
Last Quarter
Mar 1
New
Mar 8
First Quarter

Hourly Weather History & Observations

Time (PST) Temp. Dew Point Humidity Pressure Visibility Wind Dir Wind Speed Gust Speed Precip Events Conditions
12:56 AM 48.9 °F 39.0 °F 69% 30.10 in 10.0 mi Calm Calm - N/A   Overcast
1:56 AM 48.0 °F 39.9 °F 74% 30.09 in 9.0 mi ESE 5.8 mph - N/A   Overcast
2:56 AM 48.9 °F 39.0 °F 69% 30.07 in 8.0 mi ESE 6.9 mph - 0.00 in Rain Light Rain
3:56 AM 48.0 °F 39.9 °F 74% 30.05 in 7.0 mi Calm Calm - 0.00 in   Overcast
4:56 AM 48.9 °F 39.9 °F 71% 30.04 in 7.0 mi East 3.5 mph - N/A   Overcast
5:56 AM 48.0 °F 39.9 °F 74% 30.04 in 6.0 mi ESE 5.8 mph - N/A   Haze
6:56 AM 48.9 °F 39.9 °F 71% 30.04 in 6.0 mi SE 4.6 mph - N/A   Haze
7:56 AM 48.9 °F 42.1 °F 77% 30.04 in 4.0 mi ESE 5.8 mph - 0.01 in Rain Light Rain
8:56 AM 50.0 °F 42.1 °F 74% 30.02 in 5.0 mi ESE 9.2 mph - 0.01 in Rain Light Rain
9:56 AM 50.0 °F 43.0 °F 77% 30.03 in 4.0 mi East 10.4 mph - 0.02 in Rain Light Rain
10:18 AM 50.0 °F 44.1 °F 80% 30.03 in 3.0 mi East 9.2 mph - 0.00 in Rain Light Rain
10:45 AM 50.0 °F 44.1 °F 80% 30.03 in 2.0 mi East 11.5 mph - 0.02 in Rain Rain
10:56 AM 51.1 °F 45.0 °F 80% 30.02 in 1.8 mi East 11.5 mph - 0.04 in Rain Rain
11:11 AM 51.1 °F 46.0 °F 83% 30.03 in 2.0 mi ENE 11.5 mph - 0.01 in Rain Light Rain
11:38 AM 51.1 °F 45.0 °F 80% 30.00 in 1.8 mi East 10.4 mph - 0.05 in Rain Rain
11:56 AM 50.0 °F 46.0 °F 86% 29.99 in 1.5 mi ESE 12.7 mph - 0.11 in Rain Heavy Rain
12:19 PM 51.1 °F 46.0 °F 83% 29.98 in 2.5 mi ESE 12.7 mph - 0.02 in Rain Light Rain
12:56 PM 52.0 °F 46.0 °F 80% 29.97 in 2.5 mi East 12.7 mph - 0.02 in   Haze
1:20 PM 52.0 °F 46.0 °F 80% 29.95 in 2.5 mi East 13.8 mph - 0.00 in   Haze
1:26 PM 53.1 °F 46.0 °F 77% 29.94 in 4.0 mi East 12.7 mph - 0.00 in   Haze
1:56 PM 53.1 °F 46.0 °F 77% 29.96 in 4.0 mi East 11.5 mph - 0.00 in   Haze
2:39 PM 53.1 °F 46.9 °F 80% 29.95 in 6.0 mi East 11.5 mph - N/A   Haze
2:56 PM 53.1 °F 46.0 °F 77% 29.95 in 6.0 mi ESE 10.4 mph - N/A   Haze
3:56 PM 53.1 °F 46.0 °F 77% 29.96 in 8.0 mi SE 6.9 mph - N/A   Overcast
4:56 PM 53.1 °F 46.0 °F 77% 29.97 in 8.0 mi SSW 3.5 mph - N/A   Overcast
5:56 PM 53.1 °F 45.0 °F 74% 29.98 in 9.0 mi Calm Calm - N/A   Overcast
6:56 PM 51.1 °F 46.0 °F 83% 29.99 in 7.0 mi WSW 4.6 mph - N/A   Mostly Cloudy
7:56 PM 51.1 °F 46.0 °F 83% 30.01 in 6.0 mi West 3.5 mph - N/A   Haze
8:56 PM 51.1 °F 46.0 °F 83% 30.03 in 6.0 mi NE 4.6 mph - N/A   Haze
9:56 PM 51.1 °F 46.0 °F 83% 30.07 in 5.0 mi North 3.5 mph - N/A   Haze
10:56 PM 51.1 °F 46.0 °F 83% 30.08 in 4.0 mi Calm Calm - N/A   Haze
11:56 PM 51.1 °F 46.0 °F 83% 30.08 in 4.0 mi ESE 4.6 mph - N/A   Haze